Date String (YYYY-MM-DD hh:mm:ss) UTC,Instrument flags,absolute air pressure of the measurement (hPa),sample flow rate (lpm),inlet stack bypass flow (lpm),air temperature of the measurement (°C),ambient temperature measured by the external sensor (°C),aerosol sample conditioner tube jacket temperature (°C),OPC LED temperature (°C),internal box temperature (°C),relative humidity of the measurement (%),span deviation,mass concentration of particles derived from Lorenz-Mie calculation of OPC scattering (μg/m³),mass concentration of particles derived from Lorenz-Mie calculation of OPC scattering (μg/m³),mass concentration of particles derived from Lorenz-Mie calculation of OPC scattering (μg/m³)
DateTimeUTC,F1_M11,P_M11,Q1_M11,Q2_M11,T1_M11,T2_M11,T3_M11,T4_M11,T5_M11,U1_M11,ZSPAN_M11,X0_M11,X2_M11,X1_M11
2024-05-23 04:00:00,SystemResetWarning,0823.5,5.00,000.00,030.3,029.6,000.0,038.9,032.0,009.3,0000.0,0008.54,0003.36,0002.33
2024-05-23 04:01:00,SystemResetWarning,0823.5,5.00,000.00,030.4,029.6,000.0,038.9,032.0,009.2,0000.0,0008.63,0003.39,0002.34
2024-05-23 04:02:00,SystemResetWarning,0823.5,4.99,000.00,030.3,029.6,000.0,038.9,032.0,009.2,0000.0,0008.59,0003.41,0002.36
2024-05-23 04:03:00,SystemResetWarning,0823.5,5.00,000.00,030.3,029.6,000.0,038.9,032.0,009.3,0000.0,0008.68,0003.41,0002.36
2024-05-23 04:04:00,SystemResetWarning,0823.5,4.99,000.00,030.3,029.6,000.0,038.9,032.0,009.2,0000.0,0008.93,0003.44,0002.37
2024-05-23 04:05:00,SystemResetWarning,0823.5,5.00,000.00,030.3,029.6,000.0,038.9,032.0,009.3,0000.0,0008.53,0003.44,0002.37
2024-05-23 04:06:00,SystemResetWarning,0823.5,5.01,000.00,030.3,029.6,000.0,038.9,032.0,009.3,0000.0,0008.42,0003.48,0002.39
2024-05-23 04:07:00,SystemResetWarning,0823.5,5.00,000.00,030.3,029.6,000.0,038.9,032.0,009.2,0000.0,0008.96,0003.53,0002.39
2024-05-23 04:08:00,SystemResetWarning,0823.5,5.00,000.00,030.3,029.6,000.0,038.9,031.9,009.3,0000.0,0008.97,0003.53,0002.39
2024-05-23 04:09:00,SystemResetWarning,0823.5,5.00,000.00,030.3,029.5,000.0,038.8,031.9,009.2,0000.0,0008.88,0003.53,0002.39
2024-05-23 04:10:00,SystemResetWarning,0823.5,4.99,000.00,030.3,029.5,000.0,038.8,031.9,009.3,0000.0,0008.73,0003.48,0002.37
2024-05-23 04:11:00,SystemResetWarning,0823.5,4.99,000.00,030.3,029.5,000.0,038.8,032.0,009.2,0000.0,0008.40,0003.41,0002.34
2024-05-23 04:12:00,SystemResetWarning,0823.6,4.99,000.00,030.3,029.5,000.0,038.8,032.0,009.1,0000.0,0008.20,0003.36,0002.35
2024-05-23 04:13:00,SystemResetWarning,0823.5,5.00,000.00,030.3,029.5,000.0,038.8,032.0,009.0,0000.0,0008.39,0003.36,0002.34
2024-05-23 04:14:00,SystemResetWarning,0823.6,5.01,000.00,030.3,029.6,000.0,038.8,032.0,009.0,0000.0,0008.93,0003.36,0002.34
2024-05-23 04:15:00,SystemResetWarning,0823.5,5.01,000.00,030.3,029.6,000.0,038.8,032.0,009.1,0000.0,0008.57,0003.34,0002.34
2024-05-23 04:16:00,SystemResetWarning,0823.6,5.01,000.00,030.3,029.5,000.0,038.8,032.0,009.1,0000.0,0008.44,0003.37,0002.36
2024-05-23 04:17:00,SystemResetWarning,0823.6,5.00,000.00,030.3,029.5,000.0,038.8,032.0,009.2,0000.0,0008.30,0003.38,0002.36
2024-05-23 04:18:00,SystemResetWarning,0823.6,5.00,000.00,030.3,029.5,000.0,038.8,032.0,009.3,0000.0,0007.77,0003.32,0002.37
2024-05-23 04:19:00,SystemResetWarning,0823.6,5.00,000.00,030.3,029.5,000.0,038.8,032.0,009.3,0000.0,0007.86,0003.31,0002.34
2024-05-23 04:20:00,SystemResetWarning,0823.6,4.99,000.00,030.3,029.5,000.0,038.8,032.0,009.3,0000.0,0008.26,0003.32,0002.33
2024-05-23 04:21:00,SystemResetWarning,0823.6,5.00,000.00,030.3,029.5,000.0,038.8,032.0,009.0,0000.0,0008.88,0003.30,0002.33
2024-05-23 04:22:00,SystemResetWarning,0823.6,5.00,000.00,030.3,029.5,000.0,038.8,032.0,008.8,0000.0,0009.21,0003.35,0002.34
2024-05-23 04:23:00,SystemResetWarning,0823.6,5.00,000.00,030.3,029.5,000.0,038.8,032.0,009.0,0000.0,0009.46,0003.39,0002.34
2024-05-23 04:24:00,SystemResetWarning,0823.5,4.99,000.00,030.3,029.5,000.0,038.8,032.0,009.0,0000.0,0009.55,0003.38,0002.31
2024-05-23 04:25:00,SystemResetWarning,0823.6,5.00,000.00,030.3,029.5,000.0,038.8,031.9,008.8,0000.0,0008.81,0003.35,0002.30
2024-05-23 04:26:00,SystemResetWarning,0823.6,5.00,000.00,030.3,029.5,000.0,038.8,031.9,008.8,0000.0,0008.76,0003.37,0002.28
2024-05-23 04:27:00,SystemResetWarning,0823.6,5.02,000.00,030.3,029.5,000.0,038.8,031.9,008.8,0000.0,0009.47,0003.35,0002.26
2024-05-23 04:28:00,SystemResetWarning,0823.6,5.00,000.00,030.3,029.5,000.0,038.8,031.9,008.8,0000.0,0009.99,0003.34,0002.24
2024-05-23 04:29:00,SystemResetWarning,0823.6,5.00,000.00,030.3,029.5,000.0,038.8,031.9,008.7,0000.0,0010.20,0003.33,0002.21
2024-05-23 04:30:00,SystemResetWarning,0823.5,4.99,000.00,030.3,029.5,000.0,038.8,031.9,008.8,0000.0,0010.80,0003.32,0002.21
2024-05-23 04:31:00,SystemResetWarning,0823.5,5.00,000.00,030.3,029.5,000.0,038.8,031.9,009.0,0000.0,0010.95,0003.29,0002.20
2024-05-23 04:32:00,SystemResetWarning,0823.5,4.99,000.00,030.3,029.5,000.0,038.8,032.0,009.1,0000.0,0010.51,0003.28,0002.18
2024-05-23 04:33:00,SystemResetWarning,0823.5,4.99,000.00,030.3,029.5,000.0,038.7,032.0,008.9,0000.0,0010.19,0003.27,0002.17
2024-05-23 04:34:00,SystemResetWarning,0823.5,5.00,000.00,030.3,029.5,000.0,038.7,032.0,008.8,0000.0,0011.46,0003.31,0002.15
2024-05-23 04:35:00,SystemResetWarning,0823.5,5.01,000.00,030.3,029.5,000.0,038.8,032.0,008.8,0000.0,0011.88,0003.28,0002.12
2024-05-23 04:36:00,SystemResetWarning,0823.5,5.01,000.00,030.3,029.5,000.0,038.8,032.0,008.8,0000.0,0013.31,0003.34,0002.13
2024-05-23 04:37:00,SystemResetWarning,0823.5,4.99,000.00,030.3,029.5,000.0,038.8,032.0,008.9,0000.0,0013.63,0003.35,0002.13
2024-05-23 04:38:00,SystemResetWarning,0823.5,4.99,000.00,030.3,029.5,000.0,038.8,031.9,008.9,0000.0,0013.05,0003.33,0002.14
2024-05-23 04:39:00,SystemResetWarning,0823.5,5.00,000.00,030.3,029.5,000.0,038.8,031.9,008.9,0000.0,0012.89,0003.32,0002.13
2024-05-23 04:40:00,SystemResetWarning,0823.5,5.00,000.00,030.3,029.5,000.0,038.8,031.9,009.0,0000.0,0013.20,0003.30,0002.14
2024-05-23 04:41:00,SystemResetWarning,0823.5,5.00,000.00,030.3,029.5,000.0,038.8,031.9,008.9,0000.0,0012.59,0003.34,0002.16
2024-05-23 04:42:00,SystemResetWarning,0823.5,5.00,000.00,030.3,029.4,000.0,038.7,031.9,008.9,0000.0,0012.20,0003.37,0002.18
2024-05-23 04:43:00,SystemResetWarning,0823.4,5.00,000.00,030.2,029.4,000.0,038.7,031.9,008.9,0000.0,0012.51,0003.38,0002.20
2024-05-23 04:44:00,SystemResetWarning,0823.5,5.00,000.00,030.2,029.4,000.0,038.7,031.9,008.9,0000.0,0012.34,0003.39,0002.22
2024-05-23 04:45:00,SystemResetWarning,0823.4,5.00,000.00,030.2,029.4,000.0,038.7,031.9,009.0,0000.0,0011.02,0003.36,0002.22
2024-05-23 04:46:00,SystemResetWarning,0823.4,5.00,000.00,030.2,029.4,000.0,038.7,031.8,009.0,0000.0,0010.49,0003.38,0002.24
2024-05-23 04:47:00,SystemResetWarning,0823.4,5.01,000.00,030.2,029.4,000.0,038.7,031.8,009.1,0000.0,0009.35,0003.33,0002.24
2024-05-23 04:48:00,SystemResetWarning,0823.4,4.99,000.00,030.2,029.4,000.0,038.7,031.8,009.3,0000.0,0009.10,0003.32,0002.23
2024-05-23 04:49:00,SystemResetWarning,0823.4,4.99,000.00,030.2,029.4,000.0,038.7,031.9,009.5,0000.0,0009.10,0003.35,0002.23
2024-05-23 04:50:00,SystemResetWarning,0823.4,5.01,000.00,030.2,029.4,000.0,038.7,031.9,009.6,0000.0,0008.73,0003.37,0002.23
2024-05-23 04:51:00,SystemResetWarning,0823.4,5.00,000.00,030.2,029.4,000.0,038.7,031.9,009.4,0000.0,0008.57,0003.44,0002.24
2024-05-23 04:52:00,SystemResetWarning,0823.4,5.00,000.00,030.2,029.4,000.0,038.7,031.9,009.4,0000.0,0008.47,0003.40,0002.23
2024-05-23 04:53:00,SystemResetWarning,0823.4,5.00,000.00,030.2,029.4,000.0,038.7,031.9,009.3,0000.0,0008.13,0003.37,0002.20
2024-05-23 04:54:00,SystemResetWarning,0823.4,5.00,000.00,030.2,029.4,000.0,038.6,031.9,009.2,0000.0,0007.77,0003.35,0002.19
2024-05-23 04:55:00,SystemResetWarning,0823.4,4.99,000.00,030.2,029.4,000.0,038.6,031.9,009.2,0000.0,0008.26,0003.30,0002.18
2024-05-23 04:56:00,SystemResetWarning,0823.3,5.00,000.00,030.2,029.5,000.0,038.6,032.0,009.1,0000.0,0008.42,0003.30,0002.19
2024-05-23 04:57:00,SystemResetWarning,0823.4,4.99,000.00,030.3,029.5,000.0,038.6,032.0,009.1,0000.0,0008.84,0003.28,0002.18
2024-05-23 04:58:00,SystemResetWarning,0823.3,5.01,000.00,030.3,029.5,000.0,038.7,032.0,009.1,0000.0,0009.81,0003.27,0002.18
2024-05-23 04:59:00,SystemResetWarning,0823.3,5.01,000.00,030.3,029.5,000.0,038.7,032.0,009.2,0000.0,0009.96,0003.24,0002.19
